Home   Weather   Brockton   Past weeks

Flag for USA Past Weather in Brockton, Massachusetts, USA — Yesterday and Last 2 Weeks

Now
32 °F

Chilly.


Feels Like: 24 °F
Forecast: 25 / 40 °F
Wind: 9 mph from Southeast

Location: East Milton

Current Time: Dec 5, 2016 at 11:40:05 am

Latest Report: Dec 5, 2016 at 10:54 am


Visibility: N/A

Pressure: 30.00 "Hg

Humidity: 96%

Dew Point: 31 °F

Location of BrocktonLocation

Past Weather in Brockton — Graph

°F

Brockton Temperature Yesterday

Maximum temperature yesterday: 38 °F (at 2:54 pm)
Minimum temperature yesterday: 28 °F (at 1:54 am)
Average temperature yesterday: 32 °F

High & Low Weather Summary for the Past Weeks

 TemperatureHumidityPressure
High56 °F (Nov 29, 9:54 pm)100% (Nov 24, 9:54 pm)30.37 "Hg (Nov 24, 9:54 pm)
Low27 °F (Nov 22, 4:54 am)43% (Nov 28, 2:54 pm)29.28 "Hg (Nov 20, 10:54 am)
Average37 °F75%29.96 "Hg
* Reported Nov 20 9:54 am — Dec 5 9:54 am, Brockton, Weather by CustomWeather, © 2016

Note: Actual official high and low records may vary slightly from our data, if they occured in-between our weather recording intervals... More about our weather records

Advertising

Brockton Weather History for the Previous 24 Hours

Scroll right to see more
 ConditionsComfort  
Time TempWeatherWind HumidityBarometerVisibility
9:54 am
Mon, Dec 5
31 °FChilly.12 mph96%30.03 "HgN/A
8:54 am30 °FChilly.9 mph96%30.05 "HgN/A
7:54 am29 °FChilly.7 mph96%30.07 "HgN/A
6:54 am30 °FChilly.7 mph82%30.07 "HgN/A
5:54 am30 °FChilly.9 mph72%30.09 "HgN/A
4:54 am29 °FChilly.3 mph72%30.13 "HgN/A
3:54 am30 °FChilly.5 mph72%30.12 "HgN/A
2:54 am29 °FChilly.6 mph69%30.13 "HgN/A
1:54 am29 °FChilly.6 mph66%30.15 "HgN/A
12:54 am28 °FChilly.7 mph69%30.16 "HgN/A
11:54 pm
Sun, Dec 4
28 °FChilly.7 mph69%30.17 "HgN/A
10:54 pm28 °FChilly.8 mph69%30.19 "HgN/A
9:54 pm28 °FChilly.10 mph69%30.20 "HgN/A
8:54 pm29 °FChilly.9 mph66%30.21 "HgN/A
7:54 pm30 °FChilly.9 mph61%30.23 "HgN/A
6:54 pm31 °FChilly.7 mph59%30.21 "HgN/A
5:54 pm31 °FChilly.9 mph59%30.19 "HgN/A
4:54 pm33 °FChilly.9 mph52%30.19 "HgN/A
3:54 pm36 °FChilly.8 mph46%30.19 "HgN/A
2:54 pm38 °FChilly.8 mph43%30.18 "HgN/A
1:54 pm37 °FChilly.10 mph46%30.17 "HgN/A
12:54 pm37 °FChilly.14 mph46%30.16 "HgN/A
11:54 am36 °FChilly.14 mph50%30.18 "HgN/A
Weather by CustomWeather, © 2016

See weather overviewHow to use our weather pages